Temp_Advection
nan nan nan nan nan nan nan nan nan nan nan nan nan nan nan nan nan nan nan nan nan nan nan nan nan nan nan nan nan nan nan nan nan nan nan nan nan nan nan nan nan nan nan nan nan
nan 0 0 0 0 0 0 0 0 0 0 0 0 0 0 0 0 0 0 0 0 0 0 -0 -0 -0 -0 -0 0 0 -0 -0 -0 -0 -0 -1 -0 -1 -0 -1 -0 -1 -1 -0 nan
nan 0 0 0 0 0 0 0 0 0 0 0 0 0 0 0 -0 0 0 0 0 0 -0 -0 -0 -0 -0 -0 0 0 -0 -0 -0 -0 0 0 -0 -0 -0 -0 -0 -0 -1 0 nan
nan -0 0 0 -0 -0 0 0 0 0 0 0 0 0 0 0 0 0 0 0 0 0 0 0 -0 -0 -0 -0 -0 -0 -0 -0 -0 0 0 -0 -1 -0 -1 -1 -1 0 0 -0 nan
nan -0 0 0 0 0 -0 0 0 0 0 0 0 0 0 -0 -0 0 0 0 0 0 0 0 -0 -0 0 -0 -0 -0 -0 -0 -0 0 0 0 -0 -0 -1 -1 -0 -0 0 0 nan
nan 0 0 0 0 0 0 0 0 0 0 0 0 0 0 -0 -0 0 0 0 0 0 -0 0 0 0 0 -0 -0 -0 -0 -1 -1 -0 0 0 -0 -0 -1 -1 -0 -0 -0 1 nan
nan 0 0 0 0 0 0 0 0 0 0 0 0 0 -0 -0 0 0 0 0 0 -0 -0 -0 0 0 0 -0 -0 0 0 -0 -0 -0 -0 -0 0 -0 -2 -0 -0 -0 -0 0 nan
nan 0 0 0 0 0 0 0 0 0 0 0 0 -0 -0 -0 0 0 0 0 0 0 0 -0 0 0 -0 -0 -0 -0 0 -0 -0 -0 -0 -0 -0 -0 -0 -0 -0 -0 -0 -0 nan
nan 0 0 0 0 0 0 0 0 -0 0 0 0 -0 -0 -0 0 0 0 0 0 0 0 0 0 -0 -0 -0 -0 -0 0 0 -1 -0 0 0 -0 -0 -0 -0 -0 -1 -0 -0 nan
nan 0 0 0 0 0 -0 0 0 0 0 0 0 -0 -0 -0 0 0 0 0 0 0 0 0 0 -0 -0 -0 0 -0 -0 0 -0 -0 -0 0 -0 -1 -1 -0 -1 -1 -0 -1 nan
nan -0 -0 -0 0 -0 -0 -0 -0 0 -0 -0 -0 -0 0 0 0 0 0 0 0 0 0 0 -0 -0 -0 -0 -0 -0 0 -0 -1 -0 0 -0 -1 -1 -0 0 -0 -1 -1 -0 nan
nan -0 -0 -0 -0 -0 -0 -0 -0 0 -1 -1 0 0 -0 0 0 0 0 0 0 0 -0 -0 -0 -1 -0 -0 0 0 0 -0 -0 -0 -0 -0 -1 -1 0 -0 -1 -1 -1 -0 nan
nan -0 -0 -0 -0 -0 -0 -0 0 -0 -0 -1 -0 -0 0 0 0 0 0 0 0 0 0 -0 -0 -0 -0 -0 0 0 -0 -0 -0 -0 -0 0 -0 -0 -0 -0 -1 -0 -1 -0 nan
nan -0 -1 -0 -0 -0 0 0 0 0 0 -1 -0 -0 0 0 0 0 0 0 0 0 0 -0 -0 0 0 0 0 -0 -0 -0 0 -0 -0 -0 0 -0 -0 -0 -0 -1 -1 -1 nan
nan 0 0 -0 -0 -0 0 0 0 -0 0 -0 0 0 0 0 0 0 0 0 0 0 -0 -0 -0 0 0 -0 -0 -0 -0 0 0 0 -0 -0 0 -1 -0 -0 0 -0 -2 -1 nan
nan -0 0 0 -0 0 0 0 -0 -0 -1 -0 0 0 0 0 0 0 0 0 0 0 0 -0 -0 0 -0 -0 -0 0 -0 -0 -0 -0 -0 -0 -0 -0 -0 -0 -0 -0 -1 -1 nan
nan -1 -0 0 0 0 0 0 -0 0 -0 -0 0 -0 -0 0 0 -0 0 0 0 0 0 -0 -0 -0 -0 0 -0 -0 -0 -0 0 0 -0 0 0 -1 -0 0 -0 -0 -2 -1 nan
nan -0 -0 0 0 0 0 -0 -0 -0 -0 -0 -0 -0 0 -0 0 -0 0 0 -0 0 0 0 -0 -0 0 -0 0 0 -0 -0 -0 0 -0 0 -0 -0 -0 -0 -0 0 -1 -0 nan
nan -0 -0 -0 0 0 0 -0 -1 -0 -0 -0 0 0 -0 0 0 0 0 -0 -0 0 -0 -0 -0 -0 -0 0 -0 -0 -0 -0 0 -0 0 -0 -1 -1 -0 -0 -0 -1 -1 -0 nan
nan -0 -0 -0 0 -0 -0 -0 -0 0 -0 -0 -0 0 -0 -0 -0 0 0 -0 0 -0 -0 0 -0 -0 -0 0 0 0 -0 -0 -0 -0 0 0 -0 0 -0 -0 0 -0 -0 -0 nan
nan -0 -0 0 0 0 0 -0 -0 -0 -0 -0 -0 -0 0 0 0 -0 -0 -0 0 -0 0 0 0 -0 0 0 0 -0 0 0 -0 -0 0 0 0 -0 -0 0 0 -0 -0 0 nan
nan -0 0 -0 -0 -0 0 -0 -1 -1 -1 -0 -0 0 -0 -0 0 0 -0 -0 0 -0 0 0 0 -0 -1 -0 -0 -0 -0 -0 0 0 0 -0 -1 0 0 0 -0 -0 -0 -0 nan
nan -0 -0 -0 -0 -0 -1 -0 -0 -0 -1 -1 -0 -0 -1 -0 -0 -0 -0 -0 -0 0 0 -0 0 -0 -1 0 -0 -0 -0 -0 -0 0 -0 -0 -0 0 0 -0 -0 -0 0 0 nan
nan -0 -1 -1 -1 -0 -0 -0 -0 -1 -0 -1 -0 -1 -1 -1 -0 -0 -1 -0 -1 -1 -0 0 0 -0 0 -0 -0 0 0 0 0 -0 -1 -1 -2 0 1 1 -0 -1 1 0 nan
nan -0 -1 -0 -0 -0 -0 -0 -0 -1 -1 -1 -0 -1 -0 -0 -1 -0 -0 -1 -1 -1 -0 -0 0 0 -0 -0 -0 -0 -0 0 -0 -1 -0 -2 -0 -1 1 0 -0 0 1 0 nan
nan -0 -0 -0 -0 -0 -0 -0 -0 -0 -0 -0 -0 -1 -1 -0 -0 -0 -1 -0 -0 -0 -1 -0 -0 -0 -0 -0 0 -0 -0 -0 -0 1 -0 -0 -1 -2 0 2 0 1 0 -0 nan
nan nan nan nan nan nan nan nan nan nan nan nan nan nan nan nan nan nan nan nan nan nan nan nan nan nan nan nan nan nan nan nan nan nan nan nan nan nan nan nan nan nan nan nan nan
Wind_Speed
6 6 7 8 8 8 7 7 7 9 11 13 16 19 18 16 12 9 16 15 15 12 7 6 3 3 2 2 3 2 1 2 5 4 5 7 7 13 17 13 22 9 14 11 27
9 7 8 9 10 10 10 9 10 11 12 14 15 18 19 17 10 9 17 12 11 8 6 6 4 3 2 2 3 3 3 5 5 5 6 13 10 20 10 20 7 21 12 12 24
13 10 8 8 10 12 13 14 13 13 13 14 15 17 18 16 7 11 15 11 9 7 6 5 5 5 3 3 4 3 5 4 11 19 19 9 11 6 7 6 8 20 24 16 28
14 11 10 10 10 10 13 15 16 16 16 15 16 16 16 12 2 11 13 10 8 6 5 4 5 3 3 3 3 4 10 11 13 17 8 7 16 7 19 18 17 18 14 17 30
16 12 13 12 13 13 12 13 14 16 17 17 16 15 14 9 5 9 10 9 7 5 4 5 4 4 3 4 8 5 5 12 19 18 18 19 15 9 20 27 23 15 15 8 24
18 16 14 15 15 13 13 13 12 12 14 15 15 14 12 4 5 8 9 7 6 4 3 4 3 5 5 5 1 6 16 18 18 22 15 8 13 11 12 17 15 22 15 11 20
18 18 17 16 17 14 13 13 14 13 12 13 12 11 12 10 6 7 8 6 5 4 5 5 4 3 4 5 5 12 7 9 8 6 5 3 7 7 25 23 17 13 9 8 14
17 19 19 18 16 13 15 16 15 14 11 10 9 8 6 7 8 7 8 6 5 3 4 6 6 8 3 6 7 4 2 6 5 3 5 6 5 4 3 9 12 10 9 4 11
16 18 20 20 17 14 16 17 14 10 8 5 5 5 5 5 7 6 7 6 7 5 6 7 7 4 3 2 3 4 4 7 8 5 4 3 5 5 7 20 24 20 15 11 12
16 17 19 20 16 16 16 18 12 9 4 3 6 4 6 3 8 7 8 6 5 6 5 3 3 2 3 2 2 4 4 4 7 6 4 11 13 13 20 19 23 21 17 16 14
17 17 18 20 18 18 16 12 9 4 8 8 4 8 10 6 10 9 5 4 4 2 1 2 2 6 8 7 5 3 4 7 13 15 6 8 15 15 13 14 18 20 18 15 10
18 19 19 20 18 16 17 9 7 8 11 11 14 19 17 15 6 7 7 3 2 3 1 3 6 7 4 5 6 5 6 9 10 6 4 10 21 18 14 8 18 21 21 20 16
19 20 18 18 16 14 15 12 11 10 4 6 5 6 5 6 5 4 7 3 5 3 5 6 5 0 4 4 5 5 4 6 7 7 5 7 8 6 5 5 16 21 23 21 19
22 21 20 17 11 15 10 13 12 9 4 4 3 2 3 3 4 5 7 3 2 4 3 6 4 5 4 6 5 4 4 5 6 6 3 6 6 6 7 9 7 17 19 24 21
22 22 20 18 15 13 10 10 8 4 4 2 3 3 3 5 5 4 8 5 5 4 4 7 3 5 5 6 6 7 2 4 3 3 4 2 2 8 4 8 10 7 18 22 23
22 21 23 16 15 11 8 7 2 5 6 3 3 2 2 4 3 4 5 7 3 3 4 8 4 4 7 3 6 3 3 3 2 2 2 3 4 7 3 6 6 6 9 18 25
24 21 20 15 8 6 6 2 5 4 1 4 5 3 3 3 3 5 4 4 4 2 3 4 3 3 3 2 1 2 4 4 5 4 5 3 1 11 9 8 7 12 23 18 19
21 19 14 10 9 5 3 3 3 6 6 3 1 0 4 3 4 2 2 4 5 3 1 1 6 5 3 5 2 4 4 4 4 3 5 1 6 6 4 7 13 13 19 20 15
19 9 3 3 0 5 5 2 7 5 4 5 2 0 3 1 2 1 5 4 6 9 7 4 5 1 4 3 5 2 3 2 1 1 2 4 7 9 1 4 8 13 15 10 11
16 4 9 4 2 6 3 5 4 3 6 4 2 2 2 3 3 1 3 3 3 8 2 3 4 2 2 2 1 5 4 1 2 3 5 5 5 6 7 7 8 9 11 11 8
6 3 8 4 2 2 3 5 5 8 13 4 2 5 5 5 6 4 5 5 1 1 1 3 3 4 1 6 7 3 2 3 2 4 3 4 5 7 7 5 6 8 8 8 10
5 3 10 5 1 2 1 5 9 9 11 5 2 3 3 3 4 4 6 5 1 7 5 3 4 4 10 1 4 4 6 6 4 3 3 2 10 4 6 6 6 11 6 3 7
4 4 9 6 3 3 7 5 4 8 7 7 5 5 7 4 5 3 4 7 8 2 3 3 2 3 8 3 1 3 5 5 1 3 8 3 10 2 5 6 10 10 10 5 9
7 5 6 11 10 4 5 4 6 12 3 10 7 9 7 6 5 6 7 5 22 9 8 2 3 7 7 7 1 4 4 4 5 2 6 14 27 23 14 9 8 12 15 10 10
9 6 7 4 6 8 5 5 6 8 13 18 2 15 10 5 8 5 6 10 13 12 3 1 6 5 8 13 8 13 17 15 12 20 9 28 16 25 17 9 11 21 16 15 14
7 8 10 8 11 7 5 5 5 7 5 10 6 14 11 8 11 19 17 7 8 7 7 5 5 4 9 9 10 16 16 18 17 19 13 22 25 27 28 19 9 18 21 23 22
16 11 3 6 6 4 3 4 6 16 8 6 18 15 7 12 19 28 30 30 28 21 19 12 5 3 16 5 8 17 15 19 9 7 9 9 18 6 5 7 11 20 27 28 27
Wind_Direction
334 302 293 298 309 315 319 324 330 337 345 352 356 354 350 350 339 344 353 346 346 356 359 359 304 299 246 259 248 234 40 274 246 204 252 286 356 328 322 295 313 276 248 239 213
352 329 306 292 290 293 296 298 303 314 324 334 342 347 347 346 341 353 352 352 357 9 27 22 10 311 259 263 234 170 204 230 231 258 287 306 308 314 316 320 315 347 317 242 203
358 344 332 322 299 287 285 288 291 298 307 318 327 337 342 341 336 347 354 355 358 8 1 360 350 339 291 243 234 219 227 244 260 270 286 293 308 293 291 295 331 323 327 218 195
19 15 3 342 326 309 289 280 281 286 293 301 311 323 333 335 341 340 353 357 351 346 351 350 343 319 289 286 297 290 262 250 265 276 275 283 290 260 279 263 295 318 330 205 200
15 12 4 356 342 326 313 300 286 282 286 289 296 308 321 311 269 334 352 358 353 343 353 360 359 336 292 307 313 243 264 279 279 283 282 281 253 241 264 269 289 292 334 237 211
12 7 357 352 347 337 325 316 304 294 288 286 288 293 302 272 278 329 345 356 357 339 342 349 337 332 285 275 257 304 295 287 285 270 269 256 266 229 243 263 266 288 293 304 219
11 6 1 351 349 345 338 327 315 305 294 286 283 284 285 278 281 316 329 339 350 2 335 331 316 321 299 287 290 281 297 299 268 267 254 231 295 238 254 257 263 267 279 296 256
7 5 360 353 349 348 340 331 319 307 296 277 270 267 254 262 275 302 308 313 311 305 337 337 318 300 243 296 311 328 339 337 292 306 269 158 299 322 291 302 290 280 271 316 275
2 1 359 356 351 346 341 334 326 316 304 271 246 245 266 251 274 291 306 294 308 284 297 290 302 292 305 13 344 28 327 312 308 307 274 202 277 249 260 293 285 279 281 281 281
353 355 356 354 350 349 345 340 326 311 289 267 244 266 239 275 294 294 299 264 299 289 302 241 276 345 337 77 258 265 305 258 260 287 315 293 260 266 264 261 261 276 270 275 275
339 343 347 350 346 351 351 353 345 297 282 238 252 264 288 283 294 285 249 251 277 282 255 235 344 249 258 225 218 249 256 264 277 281 285 269 278 279 271 226 245 260 269 260 260
329 332 337 342 342 343 347 9 354 307 305 270 252 255 265 274 281 265 232 218 193 239 166 356 242 246 263 251 241 234 278 285 283 275 312 293 290 285 273 228 243 255 259 251 248
320 320 326 332 332 333 343 350 345 337 280 283 236 255 259 236 251 249 202 200 211 242 201 194 241 99 188 263 260 261 226 268 264 325 280 316 291 320 287 252 269 259 253 249 247
314 314 316 320 317 325 328 335 337 335 46 258 239 239 211 224 270 226 208 228 239 244 249 233 264 201 236 260 190 285 217 242 286 0 303 46 291 287 294 293 263 262 249 241 236
310 306 304 307 302 307 311 323 329 341 12 251 198 205 217 213 304 214 200 200 227 227 83 258 229 224 239 228 171 235 249 261 255 238 345 359 59 273 327 300 285 256 246 235 230
310 307 300 298 291 288 294 313 329 40 255 298 186 218 205 208 242 176 195 220 253 266 220 248 279 214 214 234 209 326 324 352 48 104 356 232 145 283 267 225 288 292 291 245 219
313 306 296 296 274 271 289 283 29 146 300 236 231 177 222 236 254 183 191 200 201 355 326 309 231 266 186 280 99 95 44 339 349 5 233 155 94 246 276 266 252 282 287 272 248
322 313 300 284 254 248 203 55 177 240 239 351 92 188 233 166 248 228 263 275 225 148 300 81 326 193 176 199 210 187 159 155 250 265 278 227 228 252 229 281 282 290 292 286 245
329 321 0 353 180 196 180 105 216 227 314 331 323 274 289 292 214 320 227 237 215 179 176 169 266 242 206 172 144 146 194 202 234 38 21 255 287 298 4 339 312 314 322 292 216
338 73 37 39 103 152 89 248 269 336 332 355 276 156 305 332 339 269 258 219 256 189 212 205 293 203 273 172 211 168 156 47 11 294 283 279 280 237 299 313 317 312 321 310 229
344 85 30 34 124 156 171 253 318 341 360 340 307 301 249 276 207 230 262 281 211 115 157 152 147 280 169 199 186 126 228 185 173 173 231 298 256 218 230 264 291 287 299 304 247
29 51 18 351 51 46 19 317 320 331 356 312 309 281 254 294 291 262 241 252 252 161 187 215 168 263 238 223 156 168 203 165 146 236 244 241 272 262 236 259 286 288 282 306 236
26 343 14 11 57 15 329 315 319 12 4 348 319 2 2 315 312 257 305 3 4 264 199 188 239 326 328 37 75 204 201 199 120 110 215 230 268 244 266 271 268 269 260 210 219
9 1 9 54 55 25 350 303 337 352 90 352 360 42 357 347 338 301 326 349 337 320 317 216 216 202 229 251 319 263 225 202 189 204 283 238 273 278 266 253 249 239 244 208 202
32 35 16 351 354 340 320 324 344 8 357 8 60 33 4 305 314 330 0 330 324 313 313 343 239 217 254 259 268 266 273 264 225 250 222 272 261 271 275 234 238 235 217 208 198
48 3 350 317 330 352 347 17 23 4 343 321 14 340 329 295 291 302 310 328 268 314 357 343 281 291 275 277 249 259 255 262 250 252 248 258 274 270 281 278 193 208 197 203 199
29 6 327 317 341 345 351 17 331 345 302 311 335 325 320 291 315 299 283 272 258 266 272 283 267 269 275 256 310 279 221 241 235 204 211 225 253 290 245 229 215 202 201 202 204
Height
1548 1546 1545 1545 1544 1543 1541 1540 1539 1538 1536 1534 1532 1530 1527 1524 1522 1520 1517 1516 1512 1509 1507 1505 1505 1505 1504 1504 1504 1504 1509 1509 1501 1498 1493 1490 1489 1485 1483 1480 1475 1472 1469 1466 1465
1547 1545 1544 1543 1542 1541 1540 1539 1538 1536 1535 1533 1532 1529 1526 1523 1521 1519 1517 1514 1512 1509 1508 1506 1505 1505 1504 1504 1504 1503 1506 1498 1497 1494 1492 1490 1490 1487 1483 1476 1472 1467 1467 1463 1465
1546 1544 1542 1540 1539 1538 1537 1537 1536 1534 1533 1531 1530 1528 1525 1522 1521 1519 1516 1514 1512 1510 1509 1507 1506 1505 1504 1504 1503 1501 1502 1493 1492 1492 1492 1489 1486 1485 1482 1476 1472 1470 1465 1465 1462
1545 1543 1541 1540 1537 1535 1534 1533 1533 1532 1531 1529 1527 1526 1524 1522 1526 1519 1516 1513 1512 1510 1509 1508 1506 1506 1505 1504 1502 1502 1495 1493 1488 1488 1488 1487 1484 1482 1479 1473 1472 1470 1466 1465 1463
1547 1544 1542 1539 1537 1534 1532 1530 1529 1528 1527 1526 1525 1524 1523 1522 1519 1517 1515 1512 1511 1510 1509 1508 1507 1506 1505 1503 1501 1498 1494 1491 1487 1485 1482 1482 1478 1478 1473 1469 1470 1468 1466 1465 1467
1548 1545 1542 1539 1536 1533 1530 1528 1526 1525 1524 1523 1522 1521 1521 1521 1516 1516 1514 1512 1511 1510 1508 1507 1506 1506 1505 1503 1502 1496 1494 1489 1484 1478 1478 1477 1471 1472 1465 1466 1467 1466 1465 1465 1465
1547 1545 1541 1538 1535 1532 1529 1527 1524 1523 1521 1521 1520 1519 1518 1517 1515 1515 1513 1512 1511 1510 1509 1507 1506 1505 1503 1501 1498 1494 1495 1486 1478 1475 1474 1472 1469 1469 1461 1463 1463 1463 1462 1462 1462
1547 1544 1541 1538 1534 1531 1528 1525 1522 1520 1518 1517 1517 1517 1514 1512 1512 1512 1512 1511 1510 1509 1509 1507 1506 1504 1502 1499 1495 1493 1493 1495 1476 1474 1470 1471 1474 1465 1462 1462 1460 1461 1460 1458 1458
1547 1544 1541 1537 1533 1531 1527 1523 1520 1518 1516 1516 1516 1516 1512 1510 1509 1509 1509 1509 1509 1508 1507 1507 1506 1504 1501 1500 1502 1499 1497 1499 1485 1473 1472 1473 1472 1464 1460 1460 1457 1457 1456 1457 1455
1547 1544 1540 1537 1532 1530 1526 1522 1519 1516 1516 1515 1515 1518 1512 1509 1508 1507 1507 1507 1508 1507 1507 1507 1506 1505 1504 1504 1514 1510 1493 1493 1492 1475 1472 1470 1468 1459 1457 1455 1452 1451 1452 1452 1449
1546 1543 1540 1536 1533 1529 1526 1521 1522 1519 1514 1512 1511 1508 1508 1507 1506 1504 1504 1505 1504 1506 1507 1507 1509 1508 1499 1499 1495 1496 1497 1495 1484 1475 1475 1469 1460 1452 1449 1449 1447 1445 1445 1447 1448
1545 1542 1539 1535 1532 1528 1525 1523 1522 1523 1513 1506 1506 1505 1505 1505 1505 1502 1504 1504 1503 1504 1504 1508 1508 1494 1494 1494 1494 1493 1494 1489 1478 1472 1473 1464 1451 1442 1439 1438 1437 1438 1439 1441 1444
1542 1539 1536 1533 1530 1528 1525 1523 1521 1519 1517 1504 1502 1502 1502 1503 1502 1500 1502 1501 1502 1502 1502 1505 1492 1491 1493 1492 1493 1491 1490 1487 1483 1474 1469 1466 1457 1445 1434 1432 1429 1431 1433 1436 1437
1539 1536 1533 1531 1530 1526 1524 1522 1520 1518 1526 1505 1501 1501 1500 1500 1501 1498 1499 1502 1501 1500 1497 1498 1488 1489 1491 1492 1490 1493 1481 1481 1480 1482 1492 1472 1482 1451 1438 1433 1427 1425 1427 1429 1431
1535 1532 1529 1527 1526 1525 1524 1521 1519 1520 1549 1503 1500 1498 1498 1500 1497 1496 1497 1498 1498 1496 1498 1493 1487 1488 1491 1487 1485 1484 1479 1479 1478 1482 1486 1477 1491 1451 1441 1434 1424 1420 1420 1423 1426
1530 1528 1524 1524 1522 1522 1520 1520 1520 1532 1532 1502 1497 1497 1497 1496 1495 1494 1495 1496 1495 1495 1493 1488 1485 1484 1482 1479 1481 1478 1479 1480 1482 1485 1499 1474 1482 1455 1443 1431 1423 1416 1415 1418 1420
1526 1523 1520 1520 1520 1519 1520 1521 1535 1538 1502 1497 1495 1496 1496 1495 1494 1492 1493 1495 1494 1497 1492 1486 1483 1478 1477 1480 1479 1480 1487 1500 1503 1506 1487 1470 1480 1449 1429 1427 1422 1416 1412 1414 1418
1522 1519 1516 1515 1516 1517 1519 1522 1532 1506 1501 1492 1493 1494 1497 1493 1492 1492 1492 1491 1487 1488 1495 1499 1487 1477 1474 1476 1477 1482 1485 1501 1499 1495 1486 1471 1468 1442 1425 1422 1418 1414 1410 1406 1408
1518 1515 1513 1513 1514 1516 1519 1536 1516 1507 1499 1497 1494 1496 1495 1492 1494 1491 1491 1486 1480 1484 1490 1493 1485 1472 1473 1472 1475 1481 1486 1480 1482 1490 1502 1475 1453 1432 1422 1420 1417 1413 1409 1405 1406
1516 1514 1515 1515 1513 1516 1521 1519 1508 1502 1500 1498 1498 1497 1497 1495 1497 1494 1488 1479 1476 1477 1478 1480 1488 1471 1470 1472 1472 1475 1477 1485 1496 1488 1475 1470 1462 1449 1430 1421 1418 1413 1411 1408 1409
1515 1516 1517 1515 1516 1516 1526 1521 1510 1506 1505 1504 1501 1500 1497 1496 1495 1493 1486 1478 1476 1479 1479 1481 1487 1475 1470 1471 1469 1477 1478 1478 1482 1486 1480 1473 1455 1429 1425 1420 1418 1412 1411 1410 1409
1517 1519 1519 1517 1519 1519 1520 1519 1515 1508 1507 1504 1502 1500 1498 1495 1494 1492 1488 1480 1477 1476 1480 1479 1486 1490 1469 1460 1461 1465 1468 1470 1481 1474 1481 1479 1439 1419 1420 1419 1416 1411 1411 1410 1407
1520 1520 1519 1517 1526 1524 1522 1519 1516 1513 1513 1509 1506 1504 1502 1499 1499 1492 1486 1482 1481 1479 1478 1478 1484 1496 1470 1466 1463 1462 1462 1463 1466 1472 1465 1475 1438 1418 1418 1417 1414 1411 1409 1411 1409
1529 1526 1521 1521 1529 1530 1529 1522 1519 1517 1516 1517 1515 1511 1511 1508 1500 1496 1492 1485 1485 1482 1480 1478 1481 1477 1478 1464 1463 1463 1460 1461 1463 1477 1450 1442 1420 1411 1412 1414 1411 1409 1406 1409 1411
1535 1539 1540 1536 1533 1536 1534 1528 1524 1528 1523 1521 1516 1525 1526 1518 1508 1503 1500 1497 1488 1482 1479 1480 1480 1480 1471 1465 1465 1461 1458 1454 1461 1445 1455 1416 1425 1403 1401 1405 1404 1403 1404 1407 1409
1544 1547 1543 1541 1539 1537 1534 1535 1532 1535 1535 1528 1528 1528 1527 1525 1520 1514 1510 1510 1500 1487 1486 1483 1481 1474 1466 1461 1461 1456 1451 1442 1438 1437 1437 1425 1418 1393 1396 1397 1397 1397 1400 1402 1405
1547 1549 1548 1545 1542 1540 1540 1539 1537 1537 1530 1530 1530 1527 1524 1520 1517 1513 1508 1503 1495 1490 1491 1489 1481 1476 1456 1457 1458 1441 1438 1425 1423 1423 1418 1423 1394 1393 1393 1394 1392 1394 1395 1397 1401